Time,TemperatureF,DewpointF,PressureIn,WindDirection,WindDirectionDegrees,WindSpeedMPH,WindSpeedGustMPH,Humidity,HourlyPrecipIn,Conditions,Clouds,dailyrainin,SolarRadiationWatts/m^2,SoftwareType,DateUTC
2013-07-07 00:01:00,78.3,75.7,30.11,East,80,1.0,3.0,92,0.00,,,0.06,0.0,meteohub,2013-07-07 04:01:00,
2013-07-07 00:02:00,78.3,75.7,30.11,SSE,157,1.0,3.0,92,0.00,,,0.06,0.0,meteohub,2013-07-07 04:02:00,
2013-07-07 00:07:00,78.3,75.7,30.11,ESE,106,0.0,5.0,92,0.00,,,0.00,0.0,meteohub,2013-07-07 04:07:00,
2013-07-07 00:12:00,78.3,75.7,30.11,ESE,118,0.0,7.0,92,0.00,,,0.00,0.0,meteohub,2013-07-07 04:12:00,
2013-07-07 00:17:00,78.3,75.7,30.11,ESE,118,1.0,7.0,92,0.00,,,0.00,0.0,meteohub,2013-07-07 04:17:00,
2013-07-07 00:22:00,78.3,75.7,30.11,ESE,103,0.0,4.0,92,0.00,,,0.00,0.0,meteohub,2013-07-07 04:22:00,
2013-07-07 00:27:00,78.3,75.7,30.11,ESE,104,1.0,3.0,92,0.00,,,0.00,0.0,meteohub,2013-07-07 04:27:00,
2013-07-07 00:32:00,78.3,75.7,30.11,East,98,0.0,5.0,92,0.00,,,0.00,0.0,meteohub,2013-07-07 04:32:00,
2013-07-07 00:37:00,78.3,75.7,30.11,East,98,0.0,5.0,92,0.00,,,0.00,0.0,meteohub,2013-07-07 04:37:00,
2013-07-07 00:42:00,78.1,75.6,30.11,East,100,0.0,5.0,92,0.00,,,0.00,0.0,meteohub,2013-07-07 04:42:00,
2013-07-07 00:47:00,78.1,75.6,30.11,ESE,107,0.0,2.0,92,0.00,,,0.00,0.0,meteohub,2013-07-07 04:47:00,
2013-07-07 00:52:00,78.1,75.6,30.11,ESE,106,0.0,2.0,92,0.00,,,0.00,0.0,meteohub,2013-07-07 04:52:00,
2013-07-07 00:57:00,78.1,75.6,30.11,ESE,106,0.0,2.0,92,0.00,,,0.00,0.0,meteohub,2013-07-07 04:57:00,
2013-07-07 01:02:00,77.9,75.4,30.11,ESE,107,1.0,1.0,92,0.00,,,0.00,0.0,meteohub,2013-07-07 05:02:00,
2013-07-07 01:07:00,77.9,75.4,30.11,ESE,107,0.0,2.0,92,0.00,,,0.00,0.0,meteohub,2013-07-07 05:07:00,
2013-07-07 01:12:00,77.9,75.4,30.11,ESE,107,0.0,2.0,92,0.00,,,0.00,0.0,meteohub,2013-07-07 05:12:00,
2013-07-07 01:17:00,77.7,75.2,30.11,ESE,107,0.0,2.0,92,0.00,,,0.00,0.0,meteohub,2013-07-07 05:17:00,
2013-07-07 01:22:00,77.7,75.2,30.11,ESE,107,0.0,3.0,92,0.00,,,0.00,0.0,meteohub,2013-07-07 05:22:00,
2013-07-07 01:27:00,77.7,75.2,30.11,ESE,107,0.0,3.0,92,0.00,,,0.00,0.0,meteohub,2013-07-07 05:27:00,
2013-07-07 01:32:00,77.7,75.2,30.11,ESE,108,0.0,2.0,92,0.00,,,0.00,0.0,meteohub,2013-07-07 05:32:00,
2013-07-07 01:37:00,77.5,75.0,30.11,ESE,108,0.0,0.0,92,0.00,,,0.00,0.0,meteohub,2013-07-07 05:37:00,
2013-07-07 01:42:00,77.5,75.0,30.11,ESE,107,0.0,0.0,92,0.00,,,0.00,0.0,meteohub,2013-07-07 05:42:00,
2013-07-07 01:47:00,77.5,75.0,30.11,ESE,108,0.0,1.0,92,0.00,,,0.00,0.0,meteohub,2013-07-07 05:47:00,
2013-07-07 01:52:00,77.4,74.8,30.11,ESE,107,0.0,1.0,92,0.00,,,0.00,0.0,meteohub,2013-07-07 05:52:00,
2013-07-07 01:57:00,77.4,74.8,30.11,ESE,107,0.0,1.0,92,0.00,,,0.00,0.0,meteohub,2013-07-07 05:57:00,
2013-07-07 02:02:00,77.4,75.2,30.11,ESE,108,0.0,0.0,93,0.00,,,0.00,0.0,meteohub,2013-07-07 06:02:00,
2013-07-07 02:07:00,77.4,75.2,30.10,ESE,108,0.0,1.0,93,0.00,,,0.00,0.0,meteohub,2013-07-07 06:07:00,
2013-07-07 02:12:00,77.4,75.2,30.10,ESE,107,0.0,1.0,93,0.00,,,0.00,0.0,meteohub,2013-07-07 06:12:00,
2013-07-07 02:17:00,77.4,75.2,30.10,ESE,107,0.0,1.0,93,0.00,,,0.00,0.0,meteohub,2013-07-07 06:17:00,
2013-07-07 02:22:00,77.4,75.2,30.10,ESE,108,0.0,1.0,93,0.00,,,0.00,0.0,meteohub,2013-07-07 06:22:00,
2013-07-07 02:27:00,77.5,75.4,30.10,SSE,157,0.0,1.0,93,0.00,,,0.00,0.0,meteohub,2013-07-07 06:27:00,
2013-07-07 02:32:00,77.5,75.4,30.10,SSE,157,0.0,3.0,93,0.00,,,0.00,0.0,meteohub,2013-07-07 06:32:00,
2013-07-07 02:37:00,77.5,75.4,30.10,SSE,158,0.0,3.0,93,0.00,,,0.00,0.0,meteohub,2013-07-07 06:37:00,
2013-07-07 02:42:00,77.5,75.0,30.10,SSE,158,0.0,3.0,92,0.00,,,0.00,0.0,meteohub,2013-07-07 06:42:00,
2013-07-07 02:47:00,77.5,75.0,30.10,SSE,157,0.0,1.0,92,0.00,,,0.00,0.0,meteohub,2013-07-07 06:47:00,
2013-07-07 02:52:00,77.4,75.2,30.09,SSE,158,0.0,1.0,93,0.00,,,0.00,0.0,meteohub,2013-07-07 06:52:00,
2013-07-07 02:57:00,77.2,75.0,30.09,SSE,157,0.0,1.0,93,0.00,,,0.00,0.0,meteohub,2013-07-07 06:57:00,
2013-07-07 03:02:00,77.0,74.8,30.09,SSE,157,0.0,0.0,93,0.00,,,0.00,0.0,meteohub,2013-07-07 07:02:00,
2013-07-07 03:07:00,76.8,74.7,30.09,SSE,158,0.0,0.0,93,0.00,,,0.00,0.0,meteohub,2013-07-07 07:07:00,
2013-07-07 03:12:00,76.6,74.8,30.09,SSE,158,0.0,0.0,94,0.00,,,0.00,0.0,meteohub,2013-07-07 07:12:00,
2013-07-07 03:17:00,76.5,74.7,30.09,SSE,158,0.0,0.0,94,0.00,,,0.00,0.0,meteohub,2013-07-07 07:17:00,
2013-07-07 03:22:00,76.3,74.5,30.09,SSE,158,0.0,0.0,94,0.00,,,0.00,0.0,meteohub,2013-07-07 07:22:00,
2013-07-07 03:27:00,76.3,74.5,30.09,SSE,158,0.0,0.0,94,0.00,,,0.00,0.0,meteohub,2013-07-07 07:27:00,
2013-07-07 03:32:00,76.1,74.3,30.09,SSE,157,0.0,0.0,94,0.00,,,0.00,0.0,meteohub,2013-07-07 07:32:00,
2013-07-07 03:37:00,75.9,74.3,30.09,SSE,158,0.0,0.0,95,0.00,,,0.00,0.0,meteohub,2013-07-07 07:37:00,
2013-07-07 03:42:00,75.9,74.3,30.09,SSE,157,0.0,0.0,95,0.00,,,0.00,0.0,meteohub,2013-07-07 07:42:00,
2013-07-07 03:47:00,75.7,74.1,30.09,SSE,158,0.0,0.0,95,0.00,,,0.00,0.0,meteohub,2013-07-07 07:47:00,
2013-07-07 03:52:00,75.6,73.9,30.08,SSE,158,0.0,0.0,95,0.00,,,0.00,0.0,meteohub,2013-07-07 07:52:00,
2013-07-07 03:57:00,75.6,73.9,30.08,SSE,158,0.0,0.0,95,0.00,,,0.00,0.0,meteohub,2013-07-07 07:57:00,
2013-07-07 04:02:00,75.4,73.8,30.09,SSE,157,0.0,0.0,95,0.00,,,0.00,0.0,meteohub,2013-07-07 08:02:00,
2013-07-07 04:07:00,75.4,73.8,30.09,SSE,158,0.0,0.0,95,0.00,,,0.00,0.0,meteohub,2013-07-07 08:07:00,
2013-07-07 04:12:00,75.4,74.1,30.09,SSE,158,0.0,0.0,96,0.00,,,0.00,0.0,meteohub,2013-07-07 08:12:00,
2013-07-07 04:17:00,75.0,73.8,30.09,SSE,157,0.0,0.0,96,0.00,,,0.00,0.0,meteohub,2013-07-07 08:17:00,
2013-07-07 04:22:00,75.0,73.8,30.09,SSE,158,0.0,0.0,96,0.00,,,0.00,0.0,meteohub,2013-07-07 08:22:00,
2013-07-07 04:27:00,74.8,73.6,30.09,SSE,158,0.0,0.0,96,0.00,,,0.00,0.0,meteohub,2013-07-07 08:27:00,
2013-07-07 04:32:00,74.8,73.6,30.09,SSE,157,0.0,0.0,96,0.00,,,0.00,0.0,meteohub,2013-07-07 08:32:00,
2013-07-07 04:37:00,74.8,73.6,30.09,SSE,158,0.0,0.0,96,0.00,,,0.00,0.0,meteohub,2013-07-07 08:37:00,
2013-07-07 04:42:00,74.8,73.6,30.09,SSE,158,0.0,0.0,96,0.00,,,0.00,0.0,meteohub,2013-07-07 08:42:00,
2013-07-07 04:47:00,74.7,73.4,30.09,SSE,158,0.0,0.0,96,0.00,,,0.00,0.0,meteohub,2013-07-07 08:47:00,
2013-07-07 04:52:00,74.7,73.4,30.09,SSE,157,0.0,0.0,96,0.00,,,0.00,0.0,meteohub,2013-07-07 08:52:00,
2013-07-07 04:57:00,74.5,73.2,30.09,SSE,157,0.0,0.0,96,0.00,,,0.00,0.0,meteohub,2013-07-07 08:57:00,
2013-07-07 05:02:00,74.5,73.2,30.09,SSE,158,0.0,0.0,96,0.00,,,0.00,0.0,meteohub,2013-07-07 09:02:00,
2013-07-07 05:07:00,74.5,73.6,30.09,SSE,158,0.0,0.0,97,0.00,,,0.00,0.0,meteohub,2013-07-07 09:07:00,
2013-07-07 05:12:00,74.3,73.4,30.09,SSE,158,0.0,0.0,97,0.00,,,0.00,0.0,meteohub,2013-07-07 09:12:00,
2013-07-07 05:17:00,74.1,72.9,30.09,SSE,158,0.0,0.0,96,0.00,,,0.00,0.0,meteohub,2013-07-07 09:17:00,
2013-07-07 05:22:00,74.1,72.9,30.09,SSE,158,0.0,0.0,96,0.00,,,0.00,0.0,meteohub,2013-07-07 09:22:00,
2013-07-07 05:27:00,74.1,73.2,30.09,SSE,158,0.0,0.0,97,0.00,,,0.00,0.0,meteohub,2013-07-07 09:27:00,
2013-07-07 05:33:00,74.1,73.2,30.09,SSE,158,0.0,0.0,97,0.00,,,0.00,0.0,meteohub,2013-07-07 09:33:00,
2013-07-07 05:38:00,73.9,73.0,30.09,SSE,158,0.0,0.0,97,0.00,,,0.00,0.0,meteohub,2013-07-07 09:38:00,
2013-07-07 05:43:00,73.8,72.9,30.08,SSE,157,0.0,0.0,97,0.00,,,0.00,0.0,meteohub,2013-07-07 09:43:00,
2013-07-07 05:48:00,73.8,72.9,30.08,SSE,158,0.0,0.0,97,0.00,,,0.00,0.0,meteohub,2013-07-07 09:48:00,
2013-07-07 05:53:00,73.8,72.9,30.08,SSE,158,0.0,0.0,97,0.00,,,0.00,0.0,meteohub,2013-07-07 09:53:00,
2013-07-07 05:58:00,73.6,72.7,30.08,SSE,158,0.0,0.0,97,0.00,,,0.00,0.0,meteohub,2013-07-07 09:58:00,
2013-07-07 06:03:00,73.6,72.7,30.08,SSE,158,0.0,0.0,97,0.00,,,0.00,0.0,meteohub,2013-07-07 10:03:00,
2013-07-07 06:08:00,73.6,72.7,30.09,SSE,158,0.0,0.0,97,0.00,,,0.00,0.0,meteohub,2013-07-07 10:08:00,
2013-07-07 06:13:00,73.6,72.7,30.09,SSE,157,0.0,0.0,97,0.00,,,0.00,0.0,meteohub,2013-07-07 10:13:00,
2013-07-07 06:18:00,73.4,72.5,30.09,SSE,158,0.0,0.0,97,0.00,,,0.00,0.0,meteohub,2013-07-07 10:18:00,
2013-07-07 06:23:00,73.4,72.5,30.09,SSE,157,0.0,0.0,97,0.00,,,0.00,0.0,meteohub,2013-07-07 10:23:00,
2013-07-07 06:28:00,73.2,72.3,30.09,SSE,157,0.0,0.0,97,0.00,,,0.00,5.0,meteohub,2013-07-07 10:28:00,
2013-07-07 06:33:00,73.2,72.3,30.09,SSE,158,0.0,0.0,97,0.00,,,0.00,7.0,meteohub,2013-07-07 10:33:00,
2013-07-07 06:38:00,73.4,72.5,30.09,SSE,158,0.0,0.0,97,0.00,,,0.00,12.0,meteohub,2013-07-07 10:38:00,
2013-07-07 06:43:00,73.6,72.7,30.09,SSE,158,0.0,0.0,97,0.00,,,0.00,16.0,meteohub,2013-07-07 10:43:00,
2013-07-07 06:48:00,73.6,72.7,30.09,SSE,158,0.0,0.0,97,0.00,,,0.00,19.0,meteohub,2013-07-07 10:48:00,
2013-07-07 06:53:00,73.8,72.9,30.09,SSE,157,0.0,0.0,97,0.00,,,0.00,23.0,meteohub,2013-07-07 10:53:00,
2013-07-07 06:58:00,73.9,73.0,30.09,SSE,157,0.0,0.0,97,0.00,,,0.00,30.0,meteohub,2013-07-07 10:58:00,
2013-07-07 07:03:00,73.9,73.0,30.09,SSE,157,0.0,0.0,97,0.00,,,0.00,54.0,meteohub,2013-07-07 11:03:00,
2013-07-07 07:08:00,74.1,73.2,30.09,SSE,158,0.0,0.0,97,0.00,,,0.00,44.0,meteohub,2013-07-07 11:08:00,
2013-07-07 07:13:00,74.5,73.9,30.10,SSE,157,0.0,0.0,98,0.00,,,0.00,79.0,meteohub,2013-07-07 11:13:00,
2013-07-07 07:18:00,74.8,73.9,30.10,SSE,158,0.0,0.0,97,0.00,,,0.00,60.0,meteohub,2013-07-07 11:18:00,
2013-07-07 07:23:00,74.8,73.9,30.10,SSE,158,0.0,0.0,97,0.00,,,0.00,70.0,meteohub,2013-07-07 11:23:00,
2013-07-07 07:28:00,75.0,74.5,30.10,SSE,158,0.0,0.0,98,0.00,,,0.00,134.0,meteohub,2013-07-07 11:28:00,
2013-07-07 07:33:00,75.6,74.7,30.11,SSE,158,0.0,0.0,97,0.00,,,0.00,69.0,meteohub,2013-07-07 11:33:00,
2013-07-07 07:38:00,75.6,74.7,30.11,SSE,158,0.0,0.0,97,0.00,,,0.00,49.0,meteohub,2013-07-07 11:38:00,
2013-07-07 07:43:00,75.7,75.2,30.11,SSE,157,0.0,0.0,98,0.00,,,0.00,165.0,meteohub,2013-07-07 11:43:00,
2013-07-07 07:48:00,76.3,75.4,30.11,SSE,157,0.0,0.0,97,0.00,,,0.00,149.0,meteohub,2013-07-07 11:48:00,
2013-07-07 07:53:00,76.3,75.4,30.11,SSE,158,0.0,0.0,97,0.00,,,0.00,86.0,meteohub,2013-07-07 11:53:00,
2013-07-07 07:58:00,76.5,75.6,30.12,SSE,157,0.0,0.0,97,0.00,,,0.00,70.0,meteohub,2013-07-07 11:58:00,
2013-07-07 08:03:00,76.6,75.7,30.12,SSE,158,0.0,0.0,97,0.00,,,0.00,56.0,meteohub,2013-07-07 12:03:00,
2013-07-07 08:08:00,76.6,75.7,30.12,SSE,157,0.0,0.0,97,0.00,,,0.00,47.0,meteohub,2013-07-07 12:08:00,
2013-07-07 08:13:00,76.8,75.6,30.12,SSE,158,0.0,0.0,96,0.00,,,0.00,53.0,meteohub,2013-07-07 12:13:00,
2013-07-07 08:18:00,76.8,75.6,30.12,SSE,158,0.0,0.0,96,0.00,,,0.00,60.0,meteohub,2013-07-07 12:18:00,
2013-07-07 08:23:00,76.8,75.6,30.12,SSE,158,0.0,0.0,96,0.00,,,0.00,51.0,meteohub,2013-07-07 12:23:00,
2013-07-07 08:28:00,76.8,75.6,30.12,SSE,157,0.0,0.0,96,0.00,,,0.00,56.0,meteohub,2013-07-07 12:28:00,
2013-07-07 08:33:00,76.8,75.6,30.12,SSE,158,0.0,0.0,96,0.00,,,0.00,109.0,meteohub,2013-07-07 12:33:00,
2013-07-07 08:38:00,77.2,75.9,30.12,SSE,158,0.0,0.0,96,0.00,,,0.00,67.0,meteohub,2013-07-07 12:38:00,
2013-07-07 08:43:00,77.4,76.1,30.12,SSE,158,0.0,0.0,96,0.00,,,0.00,62.0,meteohub,2013-07-07 12:43:00,
2013-07-07 08:48:00,77.5,76.3,30.13,SSE,158,0.0,0.0,96,0.00,,,0.00,72.0,meteohub,2013-07-07 12:48:00,
2013-07-07 08:53:00,77.7,76.1,30.13,SSE,158,0.0,0.0,95,0.00,,,0.00,473.0,meteohub,2013-07-07 12:53:00,
2013-07-07 08:58:00,78.3,76.6,30.13,SSE,157,0.0,0.0,95,0.00,,,0.00,118.0,meteohub,2013-07-07 12:58:00,
2013-07-07 09:03:00,78.4,76.6,30.13,SSE,159,0.0,1.0,94,0.00,,,0.00,193.0,meteohub,2013-07-07 13:03:00,
2013-07-07 09:08:00,79.5,77.4,30.13,SSE,163,0.0,2.0,93,0.00,,,0.00,594.0,meteohub,2013-07-07 13:08:00,
2013-07-07 09:13:00,81.1,77.9,30.13,East,91,0.0,3.0,90,0.00,,,0.00,582.0,meteohub,2013-07-07 13:13:00,
2013-07-07 09:18:00,82.2,76.8,30.13,ESE,112,3.0,3.0,84,0.00,,,0.00,554.0,meteohub,2013-07-07 13:18:00,
2013-07-07 09:23:00,82.8,76.3,30.13,SSE,154,5.0,7.0,81,0.00,,,0.00,568.0,meteohub,2013-07-07 13:23:00,
2013-07-07 09:28:00,83.1,76.6,30.13,SE,130,6.0,7.0,81,0.00,,,0.00,575.0,meteohub,2013-07-07 13:28:00,
2013-07-07 09:33:00,83.5,76.6,30.13,SSE,147,1.0,7.0,80,0.00,,,0.00,102.0,meteohub,2013-07-07 13:33:00,
2013-07-07 09:38:00,82.9,76.5,30.13,SE,126,0.0,7.0,81,0.00,,,0.00,633.0,meteohub,2013-07-07 13:38:00,
2013-07-07 09:43:00,82.9,76.1,30.13,SSE,163,1.0,7.0,80,0.00,,,0.00,698.0,meteohub,2013-07-07 13:43:00,
2013-07-07 09:48:00,83.5,76.3,30.14,SSE,161,0.0,5.0,79,0.00,,,0.00,663.0,meteohub,2013-07-07 13:48:00,
2013-07-07 09:53:00,84.0,76.1,30.13,ESE,108,0.0,6.0,77,0.00,,,0.00,679.0,meteohub,2013-07-07 13:53:00,
2013-07-07 09:58:00,84.4,75.9,30.13,East,95,0.0,7.0,76,0.00,,,0.00,759.0,meteohub,2013-07-07 13:58:00,
2013-07-07 10:03:00,84.7,76.3,30.14,SSE,161,1.0,7.0,76,0.00,,,0.00,780.0,meteohub,2013-07-07 14:03:00,
2013-07-07 10:08:00,84.2,75.7,30.13,SE,126,5.0,7.0,76,0.00,,,0.00,105.0,meteohub,2013-07-07 14:08:00,
2013-07-07 10:13:00,83.7,75.7,30.13,South,191,5.0,5.0,77,0.00,,,0.00,775.0,meteohub,2013-07-07 14:13:00,
2013-07-07 10:18:00,83.8,75.9,30.13,SSE,158,2.0,8.0,77,0.00,,,0.00,700.0,meteohub,2013-07-07 14:18:00,
2013-07-07 10:24:00,84.4,76.5,30.13,ESE,111,1.0,9.0,77,0.00,,,0.00,807.0,meteohub,2013-07-07 14:24:00,
2013-07-07 10:29:00,84.6,76.1,30.13,SE,134,1.0,9.0,76,0.00,,,0.00,216.0,meteohub,2013-07-07 14:29:00,
2013-07-07 10:34:00,84.4,76.5,30.13,ESE,115,2.0,8.0,77,0.00,,,0.00,863.0,meteohub,2013-07-07 14:34:00,
2013-07-07 10:39:00,84.6,76.5,30.14,SSE,148,3.0,8.0,77,0.00,,,0.00,846.0,meteohub,2013-07-07 14:39:00,
2013-07-07 10:44:00,84.4,76.5,30.14,SE,133,0.0,7.0,77,0.00,,,0.00,265.0,meteohub,2013-07-07 14:44:00,
2013-07-07 10:49:00,84.4,75.9,30.14,SSE,161,5.0,7.0,76,0.00,,,0.00,693.0,meteohub,2013-07-07 14:49:00,
2013-07-07 10:54:00,84.7,75.9,30.14,SSE,150,2.0,7.0,75,0.00,,,0.00,844.0,meteohub,2013-07-07 14:54:00,
2013-07-07 10:59:00,84.4,75.9,30.14,ESE,123,2.0,8.0,76,0.00,,,0.00,237.0,meteohub,2013-07-07 14:59:00,
2013-07-07 11:04:00,84.0,76.8,30.14,East,96,2.0,8.0,79,0.00,,,0.00,301.0,meteohub,2013-07-07 15:04:00,
2013-07-07 11:09:00,84.6,77.4,30.14,SE,141,1.0,8.0,79,0.00,,,0.00,967.0,meteohub,2013-07-07 15:09:00,
2013-07-07 11:14:00,84.6,77.0,30.14,SW,219,4.0,8.0,78,0.00,,,0.00,216.0,meteohub,2013-07-07 15:14:00,
2013-07-07 11:19:00,84.7,77.5,30.14,SE,138,1.0,8.0,79,0.00,,,0.00,958.0,meteohub,2013-07-07 15:19:00,
2013-07-07 11:24:00,84.6,76.5,30.14,ESE,107,1.0,8.0,77,0.00,,,0.00,962.0,meteohub,2013-07-07 15:24:00,
2013-07-07 11:29:00,84.6,76.5,30.14,East,93,3.0,8.0,77,0.00,,,0.00,267.0,meteohub,2013-07-07 15:29:00,
2013-07-07 11:34:00,84.4,77.2,30.13,SSE,153,2.0,8.0,79,0.00,,,0.00,267.0,meteohub,2013-07-07 15:34:00,
2013-07-07 11:39:00,84.9,76.8,30.13,South,175,6.0,8.0,77,0.00,,,0.00,1053.0,meteohub,2013-07-07 15:39:00,
2013-07-07 11:44:00,85.5,76.6,30.13,SSE,163,0.0,10.0,75,0.00,,,0.00,951.0,meteohub,2013-07-07 15:44:00,
2013-07-07 11:49:00,85.8,76.1,30.14,ESE,115,3.0,10.0,73,0.00,,,0.00,1034.0,meteohub,2013-07-07 15:49:00,
2013-07-07 11:54:00,85.6,76.5,30.14,SSE,165,5.0,7.0,74,0.00,,,0.00,1020.0,meteohub,2013-07-07 15:54:00,
2013-07-07 11:59:00,86.0,77.5,30.13,East,93,2.0,11.0,76,0.00,,,0.00,1071.0,meteohub,2013-07-07 15:59:00,
2013-07-07 12:04:00,86.4,77.5,30.13,NE,55,4.0,11.0,75,0.00,,,0.00,1025.0,meteohub,2013-07-07 16:04:00,
2013-07-07 12:09:00,86.2,77.4,30.14,ESE,111,1.0,11.0,75,0.00,,,0.00,1072.0,meteohub,2013-07-07 16:09:00,
2013-07-07 12:14:00,86.2,76.5,30.14,SSE,155,4.0,8.0,73,0.00,,,0.00,1083.0,meteohub,2013-07-07 16:14:00,
2013-07-07 12:19:00,85.8,76.6,30.14,South,174,2.0,9.0,74,0.00,,,0.00,1088.0,meteohub,2013-07-07 16:19:00,
2013-07-07 12:24:00,85.8,76.6,30.13,SE,127,6.0,9.0,74,0.00,,,0.00,403.0,meteohub,2013-07-07 16:24:00,
2013-07-07 12:29:00,85.6,75.9,30.14,SE,143,1.0,9.0,73,0.00,,,0.00,1100.0,meteohub,2013-07-07 16:29:00,
2013-07-07 12:34:00,85.8,76.6,30.14,SSE,168,1.0,9.0,74,0.00,,,0.00,1111.0,meteohub,2013-07-07 16:34:00,
2013-07-07 12:39:00,86.0,76.3,30.13,SSE,153,1.0,9.0,73,0.00,,,0.00,1174.0,meteohub,2013-07-07 16:39:00,
2013-07-07 12:44:00,86.2,77.4,30.13,SW,225,2.0,9.0,75,0.00,,,0.00,1169.0,meteohub,2013-07-07 16:44:00,
2013-07-07 12:49:00,86.5,76.5,30.13,East,80,1.0,7.0,72,0.00,,,0.00,1041.0,meteohub,2013-07-07 16:49:00,
2013-07-07 12:54:00,86.5,76.5,30.13,ESE,119,1.0,7.0,72,0.00,,,0.00,1216.0,meteohub,2013-07-07 16:54:00,
2013-07-07 12:59:00,87.1,77.4,30.13,SSE,153,6.0,9.0,73,0.00,,,0.00,1048.0,meteohub,2013-07-07 16:59:00,
2013-07-07 13:04:00,87.3,77.5,30.13,South,190,4.0,9.0,73,0.00,,,0.00,1194.0,meteohub,2013-07-07 17:04:00,
2013-07-07 13:09:00,87.1,76.5,30.13,SSE,157,1.0,9.0,71,0.00,,,0.00,1202.0,meteohub,2013-07-07 17:09:00,
2013-07-07 13:14:00,86.9,76.3,30.12,South,188,4.0,9.0,71,0.00,,,0.00,1171.0,meteohub,2013-07-07 17:14:00,
2013-07-07 13:19:00,86.5,76.5,30.13,SE,140,7.0,9.0,72,0.00,,,0.00,1218.0,meteohub,2013-07-07 17:19:00,
2013-07-07 13:25:00,86.4,75.9,30.13,East,91,2.0,9.0,71,0.00,,,0.00,387.0,meteohub,2013-07-07 17:25:00,
2013-07-07 13:30:00,86.2,77.0,30.12,SSE,147,1.0,10.0,74,0.00,,,0.00,278.0,meteohub,2013-07-07 17:30:00,
2013-07-07 13:35:00,85.8,76.1,30.12,SSE,153,3.0,10.0,73,0.00,,,0.00,1129.0,meteohub,2013-07-07 17:35:00,
2013-07-07 13:40:00,86.2,76.5,30.12,East,83,2.0,10.0,73,0.00,,,0.00,295.0,meteohub,2013-07-07 17:40:00,
2013-07-07 13:45:00,85.5,75.7,30.12,East,89,5.0,7.0,73,0.00,,,0.00,327.0,meteohub,2013-07-07 17:45:00,
2013-07-07 13:50:00,85.3,76.1,30.12,ESE,119,1.0,9.0,74,0.00,,,0.00,1153.0,meteohub,2013-07-07 17:50:00,
2013-07-07 13:55:00,86.0,76.3,30.12,ESE,105,5.0,11.0,73,0.00,,,0.00,1023.0,meteohub,2013-07-07 17:55:00,
2013-07-07 14:00:00,86.4,76.6,30.12,South,173,4.0,11.0,73,0.00,,,0.00,1069.0,meteohub,2013-07-07 18:00:00,
2013-07-07 14:05:00,86.2,76.1,30.12,WSW,245,1.0,9.0,72,0.00,,,0.00,1090.0,meteohub,2013-07-07 18:05:00,
2013-07-07 14:10:00,86.2,76.1,30.12,ESE,118,5.0,9.0,72,0.00,,,0.00,1065.0,meteohub,2013-07-07 18:10:00,
2013-07-07 14:15:00,86.5,76.5,30.12,SE,144,6.0,9.0,72,0.00,,,0.00,1086.0,meteohub,2013-07-07 18:15:00,
2013-07-07 14:20:00,86.9,76.3,30.11,SSE,168,3.0,8.0,71,0.00,,,0.00,1111.0,meteohub,2013-07-07 18:20:00,
2013-07-07 14:25:00,87.1,76.1,30.11,ENE,70,5.0,8.0,70,0.00,,,0.00,1048.0,meteohub,2013-07-07 18:25:00,
2013-07-07 14:30:00,87.1,76.1,30.12,East,96,7.0,10.0,70,0.00,,,0.00,1063.0,meteohub,2013-07-07 18:30:00,
2013-07-07 14:35:00,87.3,77.2,30.11,SSE,159,0.0,10.0,72,0.00,,,0.00,1123.0,meteohub,2013-07-07 18:35:00,
2013-07-07 14:40:00,87.1,75.7,30.11,East,101,2.0,8.0,69,0.00,,,0.00,357.0,meteohub,2013-07-07 18:40:00,
2013-07-07 14:45:00,86.5,75.9,30.11,SSE,155,1.0,8.0,71,0.00,,,0.00,550.0,meteohub,2013-07-07 18:45:00,
2013-07-07 14:50:00,86.4,76.3,30.11,East,91,0.0,8.0,72,0.00,,,0.00,1088.0,meteohub,2013-07-07 18:50:00,
2013-07-07 14:55:00,86.5,76.8,30.11,SSW,200,6.0,8.0,73,0.00,,,0.00,1037.0,meteohub,2013-07-07 18:55:00,
2013-07-07 15:00:00,86.7,76.6,30.11,SSE,151,4.0,8.0,72,0.00,,,0.00,1086.0,meteohub,2013-07-07 19:00:00,
2013-07-07 15:05:00,86.5,75.9,30.11,SE,142,0.0,10.0,71,0.00,,,0.00,439.0,meteohub,2013-07-07 19:05:00,
2013-07-07 15:10:00,86.5,76.5,30.10,South,175,2.0,10.0,72,0.00,,,0.00,1078.0,meteohub,2013-07-07 19:10:00,
2013-07-07 15:15:00,86.5,76.5,30.10,SSE,159,7.0,10.0,72,0.00,,,0.00,239.0,meteohub,2013-07-07 19:15:00,
2013-07-07 15:20:00,85.8,75.7,30.10,SE,142,5.0,9.0,72,0.00,,,0.00,163.0,meteohub,2013-07-07 19:20:00,
2013-07-07 15:25:00,84.9,75.2,30.10,SE,127,0.0,9.0,73,0.00,,,0.00,972.0,meteohub,2013-07-07 19:25:00,
2013-07-07 15:30:00,85.5,75.7,30.10,SE,136,1.0,9.0,73,0.00,,,0.00,951.0,meteohub,2013-07-07 19:30:00,
2013-07-07 15:35:00,85.6,75.6,30.10,NE,46,1.0,8.0,72,0.00,,,0.00,947.0,meteohub,2013-07-07 19:35:00,
2013-07-07 15:40:00,85.8,75.7,30.10,SSE,159,2.0,8.0,72,0.00,,,0.00,895.0,meteohub,2013-07-07 19:40:00,
2013-07-07 15:45:00,86.2,76.1,30.10,SE,131,0.0,8.0,72,0.00,,,0.00,898.0,meteohub,2013-07-07 19:45:00,
2013-07-07 15:50:00,86.5,75.9,30.09,ESE,103,0.0,8.0,71,0.00,,,0.00,849.0,meteohub,2013-07-07 19:50:00,
2013-07-07 15:55:00,86.7,75.7,30.09,ESE,104,1.0,9.0,70,0.00,,,0.00,854.0,meteohub,2013-07-07 19:55:00,
2013-07-07 16:00:00,86.7,75.7,30.09,SSE,165,4.0,9.0,70,0.00,,,0.00,896.0,meteohub,2013-07-07 20:00:00,
2013-07-07 16:05:00,86.4,75.4,30.09,SE,132,0.0,9.0,70,0.00,,,0.00,838.0,meteohub,2013-07-07 20:05:00,
2013-07-07 16:10:00,86.5,75.2,30.09,East,89,7.0,9.0,69,0.00,,,0.00,796.0,meteohub,2013-07-07 20:10:00,
2013-07-07 16:15:00,86.5,75.6,30.09,South,186,1.0,8.0,70,0.00,,,0.00,796.0,meteohub,2013-07-07 20:15:00,
2013-07-07 16:20:00,86.4,76.3,30.09,SE,142,5.0,8.0,72,0.00,,,0.00,831.0,meteohub,2013-07-07 20:20:00,
2013-07-07 16:25:00,86.4,75.4,30.09,SSE,153,0.0,9.0,70,0.00,,,0.00,803.0,meteohub,2013-07-07 20:25:00,
2013-07-07 16:30:00,86.2,76.1,30.09,SSE,150,0.0,9.0,72,0.00,,,0.00,729.0,meteohub,2013-07-07 20:30:00,
2013-07-07 16:35:00,86.4,75.9,30.09,SSE,163,1.0,9.0,71,0.00,,,0.00,686.0,meteohub,2013-07-07 20:35:00,
2013-07-07 16:40:00,85.8,75.7,30.08,East,96,1.0,9.0,72,0.00,,,0.00,710.0,meteohub,2013-07-07 20:40:00,
2013-07-07 16:45:00,85.8,75.4,30.08,NE,55,0.0,9.0,71,0.00,,,0.00,679.0,meteohub,2013-07-07 20:45:00,
2013-07-07 16:50:00,85.6,75.2,30.08,East,89,0.0,9.0,71,0.00,,,0.00,183.0,meteohub,2013-07-07 20:50:00,
2013-07-07 16:55:00,85.6,74.3,30.08,East,89,0.0,9.0,69,0.00,,,0.00,385.0,meteohub,2013-07-07 20:55:00,
2013-07-07 17:00:00,85.5,74.5,30.08,East,91,5.0,7.0,70,0.00,,,0.00,345.0,meteohub,2013-07-07 21:00:00,
2013-07-07 17:05:00,85.5,75.0,30.08,South,175,1.0,7.0,71,0.00,,,0.00,264.0,meteohub,2013-07-07 21:05:00,
2013-07-07 17:10:00,85.5,73.8,30.08,SE,142,1.0,8.0,68,0.00,,,0.00,209.0,meteohub,2013-07-07 21:10:00,
2013-07-07 17:15:00,85.5,74.5,30.08,SE,124,1.0,8.0,70,0.00,,,0.00,272.0,meteohub,2013-07-07 21:15:00,
2013-07-07 17:20:00,85.3,73.9,30.07,SE,136,1.0,9.0,69,0.00,,,0.00,185.0,meteohub,2013-07-07 21:20:00,
2013-07-07 17:25:00,84.9,74.5,30.07,ESE,117,0.0,9.0,71,0.00,,,0.00,142.0,meteohub,2013-07-07 21:25:00,
2013-07-07 17:30:00,84.7,74.7,30.07,SE,138,2.0,9.0,72,0.00,,,0.00,153.0,meteohub,2013-07-07 21:30:00,
2013-07-07 17:35:00,84.7,75.2,30.07,ESE,115,3.0,7.0,73,0.00,,,0.00,169.0,meteohub,2013-07-07 21:35:00,
2013-07-07 17:40:00,84.7,74.7,30.07,WSW,250,3.0,7.0,72,0.00,,,0.00,178.0,meteohub,2013-07-07 21:40:00,
2013-07-07 17:45:00,84.6,74.5,30.07,SE,138,5.0,6.0,72,0.00,,,0.00,155.0,meteohub,2013-07-07 21:45:00,
2013-07-07 17:50:00,84.2,74.1,30.07,SE,126,0.0,8.0,72,0.00,,,0.00,137.0,meteohub,2013-07-07 21:50:00,
2013-07-07 17:55:00,84.4,75.2,30.06,East,101,1.0,8.0,74,0.00,,,0.00,137.0,meteohub,2013-07-07 21:55:00,
2013-07-07 18:01:00,84.4,73.9,30.06,SSE,164,4.0,8.0,71,0.00,,,0.00,132.0,meteohub,2013-07-07 22:01:00,
2013-07-07 18:06:00,84.0,73.6,30.06,SE,140,1.0,8.0,71,0.00,,,0.00,121.0,meteohub,2013-07-07 22:06:00,
2013-07-07 18:11:00,83.8,73.4,30.06,ESE,117,0.0,8.0,71,0.00,,,0.00,125.0,meteohub,2013-07-07 22:11:00,
2013-07-07 18:16:00,83.8,73.4,30.06,ENE,67,0.0,8.0,71,0.00,,,0.00,120.0,meteohub,2013-07-07 22:16:00,
2013-07-07 18:21:00,83.7,73.2,30.06,ESE,121,1.0,7.0,71,0.00,,,0.00,114.0,meteohub,2013-07-07 22:21:00,
2013-07-07 18:26:00,83.7,73.2,30.06,SSW,198,0.0,7.0,71,0.00,,,0.00,113.0,meteohub,2013-07-07 22:26:00,
2013-07-07 18:31:00,83.8,73.4,30.06,ESE,113,0.0,7.0,71,0.00,,,0.00,109.0,meteohub,2013-07-07 22:31:00,
2013-07-07 18:36:00,83.8,72.5,30.06,ESE,123,0.0,8.0,69,0.00,,,0.00,104.0,meteohub,2013-07-07 22:36:00,
2013-07-07 18:41:00,83.7,72.3,30.06,ESE,111,5.0,8.0,69,0.00,,,0.00,104.0,meteohub,2013-07-07 22:41:00,
2013-07-07 18:46:00,83.3,72.5,30.06,East,95,0.0,10.0,70,0.00,,,0.00,93.0,meteohub,2013-07-07 22:46:00,
2013-07-07 18:51:00,83.1,72.7,30.06,ESE,106,1.0,10.0,71,0.00,,,0.00,91.0,meteohub,2013-07-07 22:51:00,
2013-07-07 18:56:00,82.8,72.9,30.06,SE,128,1.0,10.0,72,0.00,,,0.00,88.0,meteohub,2013-07-07 22:56:00,
2013-07-07 19:01:00,82.8,73.2,30.06,SSE,152,0.0,8.0,73,0.00,,,0.00,84.0,meteohub,2013-07-07 23:01:00,
2013-07-07 19:06:00,82.6,73.4,30.06,ESE,118,0.0,8.0,74,0.00,,,0.00,83.0,meteohub,2013-07-07 23:06:00,
2013-07-07 19:11:00,82.6,73.8,30.07,SSE,167,2.0,8.0,75,0.00,,,0.00,77.0,meteohub,2013-07-07 23:11:00,
2013-07-07 19:16:00,82.6,73.8,30.06,East,89,1.0,3.0,75,0.00,,,0.00,74.0,meteohub,2013-07-07 23:16:00,
2013-07-07 19:21:00,82.2,74.3,30.07,East,90,0.0,5.0,77,0.00,,,0.00,74.0,meteohub,2013-07-07 23:21:00,
2013-07-07 19:26:00,82.2,74.3,30.07,ESE,105,0.0,5.0,77,0.00,,,0.00,74.0,meteohub,2013-07-07 23:26:00,
2013-07-07 19:31:00,82.0,74.1,30.07,ESE,107,0.0,5.0,77,0.00,,,0.00,69.0,meteohub,2013-07-07 23:31:00,
2013-07-07 19:36:00,81.9,73.6,30.07,South,180,0.0,4.0,76,0.00,,,0.00,65.0,meteohub,2013-07-07 23:36:00,
2013-07-07 19:41:00,81.7,73.0,30.08,ESE,122,0.0,-999.0,76,-99.99,,,0.00,69,weatherlink.com 1.10,2013-07-07 23:41:00,
2013-07-07 19:46:00,81.7,73.8,30.08,SE,125,0.0,5.0,77,0.00,,,0.00,98.0,meteohub,2013-07-07 23:46:00,
2013-07-07 19:51:00,81.7,73.8,30.08,SE,125,0.0,5.0,77,0.00,,,0.00,56.0,meteohub,2013-07-07 23:51:00,
2013-07-07 19:56:00,81.5,73.9,30.08,ESE,115,0.0,2.0,78,0.00,,,0.00,44.0,meteohub,2013-07-07 23:56:00,
2013-07-07 20:01:00,81.1,73.6,30.08,ESE,114,0.0,2.0,78,0.00,,,0.00,37.0,meteohub,2013-07-08 00:01:00,
2013-07-07 20:06:00,81.0,73.8,30.08,ESE,115,0.0,2.0,79,0.00,,,0.00,30.0,meteohub,2013-07-08 00:06:00,
2013-07-07 20:11:00,80.6,73.9,30.08,ESE,115,0.0,1.0,80,0.00,,,0.00,23.0,meteohub,2013-07-08 00:11:00,
2013-07-07 20:16:00,80.2,73.6,30.08,ESE,117,0.0,1.0,80,0.00,,,0.00,16.0,meteohub,2013-07-08 00:16:00,
2013-07-07 20:21:00,80.1,73.8,30.08,ESE,108,0.0,2.0,81,0.00,,,0.00,9.0,meteohub,2013-07-08 00:21:00,
2013-07-07 20:26:00,79.9,73.6,30.08,ESE,108,0.0,2.0,81,0.00,,,0.00,0.0,meteohub,2013-07-08 00:26:00,
2013-07-07 20:31:00,79.5,73.6,30.08,ESE,109,0.0,1.0,82,0.00,,,0.00,0.0,meteohub,2013-07-08 00:31:00,
2013-07-07 20:36:00,79.3,73.8,30.08,ESE,109,0.0,1.0,83,0.00,,,0.00,0.0,meteohub,2013-07-08 00:36:00,
2013-07-07 20:41:00,79.0,73.4,30.08,ESE,109,0.0,1.0,83,0.00,,,0.00,0.0,meteohub,2013-07-08 00:41:00,
2013-07-07 20:46:00,78.6,73.4,30.08,ESE,109,0.0,1.0,84,0.00,,,0.00,0.0,meteohub,2013-07-08 00:46:00,
2013-07-07 20:51:00,78.4,73.6,30.08,ESE,109,0.0,1.0,85,0.00,,,0.00,0.0,meteohub,2013-07-08 00:51:00,
2013-07-07 20:56:00,78.3,73.4,30.08,ESE,109,0.0,1.0,85,0.00,,,0.00,0.0,meteohub,2013-07-08 00:56:00,
2013-07-07 21:01:00,78.3,73.8,30.08,ESE,109,0.0,1.0,86,0.00,,,0.00,0.0,meteohub,2013-07-08 01:01:00,
2013-07-07 21:06:00,78.3,73.8,30.09,ESE,109,0.0,1.0,86,0.00,,,0.00,0.0,meteohub,2013-07-08 01:06:00,
2013-07-07 21:11:00,78.1,73.6,30.08,ESE,109,0.0,1.0,86,0.00,,,0.00,0.0,meteohub,2013-07-08 01:11:00,
2013-07-07 21:16:00,78.1,73.6,30.09,ESE,109,0.0,1.0,86,0.00,,,0.00,0.0,meteohub,2013-07-08 01:16:00,
2013-07-07 21:21:00,78.1,73.6,30.09,ESE,109,0.0,1.0,86,0.00,,,0.00,0.0,meteohub,2013-07-08 01:21:00,
2013-07-07 21:26:00,77.9,73.8,30.09,ESE,109,0.0,1.0,87,0.00,,,0.00,0.0,meteohub,2013-07-08 01:26:00,
2013-07-07 21:31:00,77.7,73.6,30.09,ESE,109,0.0,1.0,87,0.00,,,0.00,0.0,meteohub,2013-07-08 01:31:00,
2013-07-07 21:36:00,77.5,73.4,30.09,SE,129,0.0,3.0,87,0.00,,,0.00,0.0,meteohub,2013-07-08 01:36:00,
2013-07-07 21:41:00,77.5,73.4,30.09,SE,129,0.0,3.0,87,0.00,,,0.00,0.0,meteohub,2013-07-08 01:41:00,
2013-07-07 21:46:00,77.5,73.4,30.09,SE,134,0.0,3.0,87,0.00,,,0.00,0.0,meteohub,2013-07-08 01:46:00,
2013-07-07 21:47:00,77.5,73.4,30.09,SE,134,0.0,3.0,87,0.00,,,0.00,0.0,meteohub,2013-07-08 01:47:00,
2013-07-07 21:52:00,77.5,73.4,30.09,SSE,156,0.0,3.0,87,0.00,,,0.00,0.0,meteohub,2013-07-08 01:52:00,
2013-07-07 21:57:00,77.7,73.6,30.09,SE,146,0.0,3.0,87,0.00,,,0.00,0.0,meteohub,2013-07-08 01:57:00,
2013-07-07 22:02:00,77.7,73.2,30.09,SE,128,0.0,1.0,86,0.00,,,0.00,0.0,meteohub,2013-07-08 02:02:00,
2013-07-07 22:07:00,77.9,73.4,30.09,SSE,157,0.0,1.0,86,0.00,,,0.00,0.0,meteohub,2013-07-08 02:07:00,
2013-07-07 22:12:00,78.1,73.6,30.09,SSE,150,0.0,2.0,86,0.00,,,0.00,0.0,meteohub,2013-07-08 02:12:00,
2013-07-07 22:17:00,78.1,73.6,30.10,SSE,152,0.0,2.0,86,0.00,,,0.00,0.0,meteohub,2013-07-08 02:17:00,
2013-07-07 22:22:00,77.9,73.4,30.10,SE,133,0.0,2.0,86,0.00,,,0.00,0.0,meteohub,2013-07-08 02:22:00,
2013-07-07 22:27:00,77.9,73.4,30.10,SE,133,0.0,2.0,86,0.00,,,0.00,0.0,meteohub,2013-07-08 02:27:00,
2013-07-07 22:32:00,77.7,73.6,30.10,SE,133,0.0,2.0,87,0.00,,,0.00,0.0,meteohub,2013-07-08 02:32:00,
2013-07-07 22:37:00,77.5,73.4,30.10,SE,135,0.0,2.0,87,0.00,,,0.00,0.0,meteohub,2013-07-08 02:37:00,
2013-07-07 22:42:00,77.4,73.2,30.10,SE,134,0.0,1.0,87,0.00,,,0.00,0.0,meteohub,2013-07-08 02:42:00,
2013-07-07 22:47:00,77.4,73.6,30.10,ESE,118,0.0,1.0,88,0.00,,,0.00,0.0,meteohub,2013-07-08 02:47:00,
2013-07-07 22:52:00,77.4,73.6,30.10,ESE,119,0.0,2.0,88,0.00,,,0.00,0.0,meteohub,2013-07-08 02:52:00,
2013-07-07 22:57:00,77.4,73.6,30.11,ESE,120,0.0,2.0,88,0.00,,,0.00,0.0,meteohub,2013-07-08 02:57:00,
2013-07-07 23:02:00,77.4,73.6,30.11,ESE,120,0.0,1.0,88,0.00,,,0.00,0.0,meteohub,2013-07-08 03:02:00,
2013-07-07 23:07:00,77.2,73.4,30.11,ESE,119,0.0,1.0,88,0.00,,,0.00,0.0,meteohub,2013-07-08 03:07:00,
2013-07-07 23:12:00,76.8,73.0,30.11,ESE,120,0.0,0.0,88,0.00,,,0.00,0.0,meteohub,2013-07-08 03:12:00,
2013-07-07 23:17:00,76.6,73.2,30.11,ESE,120,0.0,0.0,89,0.00,,,0.00,0.0,meteohub,2013-07-08 03:17:00,
2013-07-07 23:22:00,76.5,73.2,30.11,ESE,120,0.0,0.0,90,0.00,,,0.00,0.0,meteohub,2013-07-08 03:22:00,
2013-07-07 23:27:00,76.3,73.0,30.11,ESE,119,0.0,0.0,90,0.00,,,0.00,0.0,meteohub,2013-07-08 03:27:00,
2013-07-07 23:32:00,75.9,72.9,30.11,ESE,120,0.0,0.0,90,0.00,,,0.00,0.0,meteohub,2013-07-08 03:32:00,
2013-07-07 23:37:00,75.7,72.7,30.12,ESE,120,0.0,0.0,90,0.00,,,0.00,0.0,meteohub,2013-07-08 03:37:00,
2013-07-07 23:42:00,75.4,72.5,30.12,ESE,119,0.0,0.0,91,0.00,,,0.00,0.0,meteohub,2013-07-08 03:42:00,
2013-07-07 23:47:00,75.4,72.9,30.12,ESE,119,0.0,0.0,92,0.00,,,0.00,0.0,meteohub,2013-07-08 03:47:00,
2013-07-07 23:52:00,75.4,72.9,30.12,ESE,120,0.0,0.0,92,0.00,,,0.00,0.0,meteohub,2013-07-08 03:52:00,
2013-07-07 23:57:00,75.0,72.9,30.12,ESE,120,0.0,0.0,93,0.00,,,0.00,0.0,meteohub,2013-07-08 03:57:00,